Location: Deleni
(46.1000°N, 22.5500°E)
Time: 19:00:07
(UTC+00:00)

Daily predictions for brighter satellites

Satellite Brightness Start Highest point End
(mag) Time Altitude Azimuth Time Altitude Azimuth Time Altitude Azimuth
NOSS 3-1 (C) 4.2 15:08:45 10° NNW 15:15:50 53° NE 15:24:11 10° ESE
USA 234 3.4 15:10:39 10° SE 15:17:13 90° SSW 15:23:47 10° NW
MOS 1 Rocket 4.4 15:13:32 10° N 15:18:34 52° WNW 15:23:17 10° SW
NOSS 2-1 (D) 2.9 15:18:34 10° SW 15:21:50 74° NW 15:25:09 10° NE
USA 306 3.2 15:19:15 10° WSW 15:23:29 64° NNW 15:27:43 10° NE
Aureole 3 4.4 15:18:41 10° S 15:24:03 70° E 15:30:47 10° NNE
Spot 1 4.3 15:19:41 10° NNE 15:24:16 78° ESE 15:29:06 10° S
ATLAS 3B R/B 4.4 15:18:27 10° NW 15:25:10 41° WSW 15:32:04 10° S
Cosmos 1833 Rocket 4.1 15:22:21 10° SE 15:25:58 18° E 15:29:37 10° ENE
CZ-2D R/B 4.4 15:23:11 10° ESE 15:26:14 23° ENE 15:29:18 10° NNE
Meteor 2-2 Rocket 4.5 15:21:09 10° S 15:27:03 61° E 15:33:00 10° NNE
SL-08 R/B 3.4 15:22:21 10° NNE 15:27:08 82° WNW 15:31:48 10° SSW
Cosmos 1777 Rocket 4.2 15:23:33 10° NNW 15:28:51 82° WSW 15:34:08 10° SSE
Cosmos 1842 Rocket 4.0 15:25:13 10° SSE 15:29:22 41° E 15:33:34 10° NNE
Iridium 2 3.6 15:27:29 10° N 15:31:17 81° E 15:35:01 10° S
CZ-4B R/B 4.0 15:27:41 10° ESE 15:32:11 27° ENE 15:36:37 10° N
ATLAS 5 CENTAUR R/B 4.1 15:24:24 10° WNW 15:34:59 27° N 15:38:49 11° NE
ARGOS 4.2 15:32:41 10° ESE 15:36:52 24° ENE 15:41:05 10° N
PSLV R/B 4.3 15:34:30 10° SE 15:37:52 34° ENE 15:41:13 10° N
Sich 1 4.4 15:36:17 10° NNE 15:39:06 17° ENE 15:41:54 10° ESE
Cosmos 1898 Rocket 4.3 15:34:36 10° N 15:39:08 28° NE 15:43:37 10° ESE
H-2A R/B 2.6 15:34:27 10° SE 15:39:12 36° ENE 15:43:49 10° N
SMAP 3.0 15:34:38 10° SSE 15:39:14 65° ENE 15:43:52 10° N
Meteor PRIRODA 4.1 15:36:03 10° S 15:39:41 66° WSW 15:43:19 10° NNW
USA 307 3.3 15:35:43 10° WSW 15:39:56 57° NNW 15:43:50 12° NE
Cosmos 1939 Rocket 2.9 15:36:54 10° SSE 15:41:01 71° ENE 15:45:07 10° N
Cosmos 1766 Rocket 4.1 15:37:00 10° NNW 15:41:19 63° W 15:45:36 10° S
Cosmos 1862 3.9 15:38:05 10° NNW 15:42:02 62° W 15:45:58 10° S
FengYun 1-2 T 4.3 15:38:14 10° SSE 15:43:51 87° ENE 15:49:27 10° NNW
Cosmos 1606 2.6 15:40:11 10° S 15:43:55 81° E 15:47:43 10° N
ERBS 2.1 15:41:00 10° SW 15:44:12 82° NW 15:46:52 14° NE
ATLAS CENTAUR R/B 2.7 15:44:41 10° WSW 15:48:32 37° NW 15:52:42 10° NNE
Cosmos 2221 2.4 15:45:02 10° S 15:49:16 76° E 15:53:34 10° NNE
Cosmos 44 3.2 15:44:35 10° NNW 15:49:21 56° NE 15:53:50 10° SE
Meteor 2-19 Rocket 4.4 15:48:32 10° N 15:54:38 82° E 16:00:45 10° S
COSMO-SKYMED 1 3.6 15:52:00 11° NE 15:55:25 26° E 15:59:03 10° SSE
CZ-2C R/B 3.3 15:52:49 10° NNE 15:57:26 31° E 16:01:58 10° SSE
deb Chang Zheng 4 4.1 15:55:41 10° SE 15:59:34 34° ENE 16:03:30 10° N
CZ-4C R/B 3.7 15:54:16 10° NNW 16:00:01 28° NNE 16:04:34 17° ENE
Meteor 1-25 Rocket 4.3 15:55:59 10° N 16:01:24 50° ENE 16:06:48 10° SSE
USA 308 3.6 15:58:10 10° W 16:02:16 44° NNW 16:05:10 18° NE
Okean O Rocket 2.3 15:59:20 10° SE 16:03:17 32° ENE 16:07:15 10° N
Cosmos 1500 4.4 16:02:47 10° NNE 16:10:22 - SE 16:05:00 21° NE
MOS 1-B 4.3 16:03:43 10° SSE 16:09:26 69° ENE 16:15:12 10° N
ISS -2.6 16:07:39 10° WNW 16:10:43 30° N 16:11:56 24° NE
YAOGAN 1 4.2 16:13:14 17° NE 16:13:14 17° NE 16:14:47 10° NNE
Cosmos 1464 Rocket 4.4 16:05:28 10° SSW 16:11:49 69° W 16:18:12 10° N
Cosmos 2369 4.3 16:11:27 10° NNW 16:16:42 35° NE 16:20:21 18° ESE
Cosmos 1408 Rocket 4.4 16:15:56 10° NNW 16:20:10 52° W 16:24:23 10° S
GEOS 3 Rocket 3.7 16:15:44 10° ESE 16:20:48 55° NE 16:25:53 10° NNW
Cosmos 2084 3.7 16:16:42 10° NNW 16:20:52 48° NE 16:23:06 25° ESE
CZ-4 R/B 3.7 16:24:23 11° NNE 16:24:23 11° NNE 16:24:32 10° NNE
Cosmos 1743 Rocket 3.5 16:20:16 10° N 16:24:37 87° W 16:28:56 10° S
Cosmos 1697 Rocket 2.7 16:19:46 10° NNW 16:25:19 56° ENE 16:30:49 10° SE
Cosmos 1782 3.2 16:22:17 10° SSE 16:26:02 40° E 16:26:58 34° ENE
USA 267 3.9 16:21:33 17° NE 16:26:17 45° NNW 16:32:26 10° W
Cosmos 1980 Rocket 2.8 16:21:58 10° NNW 16:27:06 33° NE 16:28:49 28° E
Cosmos 1937 Rocket 3.7 16:22:09 10° NNW 16:27:20 49° ENE 16:32:28 10° SE
Cosmos 1763 Rocket 3.3 16:22:25 10° S 16:27:25 69° ESE 16:31:14 18° NNE
Nadezhda 4 Rocket 4.4 16:21:42 10° NNW 16:27:57 66° W 16:34:12 10° S
Lacrosse 5 4.4 16:25:08 10° WNW 16:29:01 22° WSW 16:32:52 10° S
Cosmos 841 Rocket 4.1 16:24:35 10° SSE 16:29:08 32° ESE 16:30:01 30° E
Meteor 2-14 Rocket 4.4 16:23:57 10° N 16:30:02 61° ENE 16:36:02 10° SSE
SL-16 R/B 4.0 16:27:46 10° N 16:29:47 14° NNE 16:29:47 14° NNE
Cosmos 1656 3.9 16:26:00 10° NNW 16:31:30 71° WSW 16:37:03 10° SSE
USA 305 4.0 16:27:58 10° W 16:31:50 33° NNW 16:33:22 25° NNE
Cosmos 2082 Rocket 2.9 16:31:24 10° SSE 16:36:18 30° ESE 16:36:39 30° E
Cosmos 1340 Rocket 3.7 16:33:16 10° NNW 16:37:13 51° W 16:41:09 10° S
Cosmos 1092 Rocket 4.0 16:31:55 10° N 16:38:20 90° SW 16:44:40 10° S
Cosmos 1809 Rocket 4.3 16:33:20 10° N 16:39:29 84° E 16:45:34 10° S
USA 229 DEB 3.8 16:33:11 10° NW 16:40:32 80° NE 16:48:22 10° SE
USA 229 3.8 16:33:17 10° NW 16:40:38 79° NE 16:48:27 10° SE
COSMOS 2406 3.3 16:35:49 10° S 16:41:23 55° ESE 16:43:55 31° NE
Cosmos 2278 4.4 16:37:39 10° NNW 16:42:46 32° NE 16:42:50 32° NE
Cosmos 990 Rocket 4.2 16:37:36 10° NNW 16:42:48 71° WSW 16:47:55 10° S
SKYMED 2 3.4 16:40:36 19° NNE 16:43:40 81° E 16:48:01 10° S
Lacrosse 5 rocket 3.1 16:42:51 10° NW 16:45:18 18° N 16:45:18 18° N
Cosmos 1151 Rocket 4.3 16:41:55 10° SSE 16:43:58 24° SE 16:43:58 24° SE
Meteor 2-21 Rocket 4.4 16:40:08 10° N 16:46:12 61° ENE 16:52:12 10° SSE
Cosmos 1602 3.8 16:43:44 10° NNW 16:47:35 77° W 16:51:26 10° S
Feng Yun 1-1 Rocket 4.4 16:42:14 10° SSE 16:48:02 60° ENE 16:53:51 10° N
USA 276 2.4 16:45:10 10° WNW 16:47:51 62° NW 16:47:51 62° NW
Cosmos 1933 3.5 16:44:18 10° SSW 16:48:20 72° W 16:51:18 18° N
ATLAS CENTAUR R/B 2.7 16:39:31 10° SW 16:49:19 87° SE 16:50:57 43° NE
Cosmos 1428 Rocket 4.5 16:44:46 10° N 16:50:55 84° W 16:57:03 10° S
SJ 16-02 4.5 16:48:21 10° WNW 16:51:01 16° W 16:53:40 10° SW
Cosmos 2142 Rocket 4.4 16:46:21 10° S 16:52:20 58° E 16:58:24 10° NNE
Cosmos 372 Rocket 4.0 16:49:22 10° NNW 16:54:30 53° ENE 16:55:12 49° E
Meteor 1-26 Rocket 4.2 16:50:28 10° S 16:56:22 83° E 17:02:26 10° NNE
Cosmos 858 Rocket 4.4 16:51:35 10° NNW 16:56:55 78° ENE 17:01:49 12° SSE
USA 306 4.2 17:00:10 10° WNW 17:03:55 29° N 17:04:00 29° N
NOSS 3-1 (A) 4.2 16:56:25 10° NW 17:03:58 76° SW 17:12:46 10° SSE
Cosmos 1805 Rocket 4.4 17:01:39 10° NNW 17:05:52 50° W 17:10:03 10° S
Cosmos 1833 Rocket 2.8 17:03:37 10° SSW 17:09:13 74° WNW 17:11:51 33° NNE
Cosmos 2279 Rocket 3.8 17:04:24 10° S 17:10:36 75° E 17:16:36 11° NNE
Cosmos 2360 4.4 17:06:05 10° NNW 17:11:49 74° WSW 17:17:30 10° SSE
CZ-4B R/B 4.1 17:07:11 10° S 17:12:29 49° W 17:17:42 10° NNW
NOSS 2-2 (D) 4.2 17:09:21 10° NW 17:14:28 68° NE 17:15:23 59° E
Meteor 1-14 Rocket 4.1 17:09:22 10° N 17:15:10 84° E 17:21:04 10° SSE
NOSS 2-2 (E) 4.3 17:10:38 10° NW 17:15:57 81° NE 17:18:12 45° SE
ARGOS 3.7 17:11:26 10° S 17:16:45 57° W 17:22:06 10° NNW
Sich 1 3.9 17:12:55 10° NNW 17:17:03 48° W 17:21:11 10° SSW
H-2A R/B 3.8 17:13:56 10° SSW 17:18:37 33° W 17:23:13 10° NNW
USA 307 4.4 17:16:43 10° WNW 17:19:51 27° NNW 17:19:51 27° NNW
Cosmos 1634 Rocket 4.5 17:14:35 10° SSW 17:20:49 61° WNW 17:27:07 10° N
COSMOS 2455 2.7 17:19:40 10° SSW 17:25:39 76° ESE 17:25:53 74° E
Cosmos 1655 Rocket 4.3 17:20:04 10° N 17:24:55 48° NNE 17:24:55 48° NNE
Landsat 5 4.4 17:27:18 44° NW 17:27:47 47° WNW 17:31:42 10° SW
ATLAS CENTAUR R/B 4.2 17:27:26 10° NW 17:28:44 11° NNW 17:29:27 11° NNW
COSMO-SKYMED 1 4.1 17:29:13 19° NNW 17:31:36 33° WNW 17:35:30 10° SW
Cosmos 540 Rocket 4.1 17:31:12 10° SW 17:36:11 53° WNW 17:37:03 47° NNW
CZ-2C R/B 3.9 17:32:59 10° N 17:37:47 38° WNW 17:42:31 10° SW
Okean O Rocket 3.6 17:35:48 10° SSW 17:39:38 28° W 17:43:30 10° NW
ISS -0.4 17:44:41 10° WNW 17:44:55 11° WNW 17:44:55 11° WNW
CZ-4C R/B 2.8 17:42:28 10° NW 17:49:39 76° NE 17:49:48 76° ENE
Cosmos 2322 Rocket 4.4 17:56:34 10° NNW 17:57:36 15° N 17:57:36 15° N
USA 267 4.3 18:08:54 34° N 18:08:54 34° N 18:14:10 10° WNW
Cosmos 1980 Rocket 3.2 18:05:53 10° NW 18:10:40 43° W 18:10:40 43° W
SL-16 R/B 4.3 18:10:26 10° NNW 18:11:40 17° NNW 18:11:40 17° NNW
Cosmos 2082 Rocket 3.5 18:14:43 10° SW 18:18:33 37° W 18:18:33 37° W
